#timestamp,LO_Frequency,Hit,StdDev 
1679742015.9,286047004.3,N
1679742035.7,286047002.7,N
1679742055.5,286047000.4,N
1679742075.4,286047002.3,N
1679742095.2,286047001.7,N
1679742115.1,286047001.8,N
1679742116.0,286047001.8,N
1679742135.8,286047005.9,N
1679742155.6,286047003.8,N
1679742175.5,286047003.2,N
1679742195.3,286047004.4,N
1679742215.1,286047003.3,N
1679742235.9,286047003.0,N
1679742255.7,286047003.4,N
1679742275.6,286047005.5,N
1679742295.4,286047005.9,N
1679742315.2,286047003.4,N
1679742335.1,286047003.9,N
1679742336.0,286047003.9,N
1679742355.8,286047003.6,N
1679742375.6,286047004.2,N
1679742395.5,286047003.4,N
1679742415.3,286047003.3,N
1679742435.2,286047003.3,N
1679742455.9,286047003.4,N
1679742475.7,286047005.5,Y
1679742495.6,286047000.0,P
1679742515.4,286047000.1,N
1679742535.3,286047000.4,N
1679742555.1,286046999.4,N
1679742556.0,286046999.4,N
1679742575.8,286046999.4,N
1679742595.7,286046998.1,N
1679742615.5,286046999.2,N
1679742635.4,286046998.6,N
1679742655.2,286046999.3,N
1679742675.0,286046999.2,N
1679742675.9,286046999.2,N
1679742695.8,286046998.8,N
1679742715.6,286046999.6,N
1679742735.4,286046999.3,N
1679742755.3,286046999.3,N
1679742775.1,286046997.6,N
1679742795.9,286046997.3,N
1679742815.7,286046997.8,N
1679742835.5,286046997.3,N
1679742855.4,286046998.0,N
1679742875.2,286046996.8,N
1679742895.1,286046997.8,N
1679742896.0,286046997.8,N
1679742915.8,286046995.5,Y
1679742935.6,286046997.2,P
1679742955.5,286046999.1,N
1679742975.3,286046999.6,N
1679742995.2,286046997.0,Y
1679743015.9,286046996.5,P
1679743035.7,286046999.1,N
1679743055.6,286046999.6,N
1679743075.4,286046996.8,N
1679743095.2,286046997.8,N
1679743115.1,286046995.3,Y
1679743116.0,286046995.3,P
1679743135.8,286046997.4,N
1679743155.7,286046999.5,N
1679743175.5,286046996.6,N
1679743195.3,286046999.3,N
1679743215.2,286046997.3,N
1679743235.0,286046996.8,N
1679743235.9,286046996.8,N
1679743255.8,286046998.0,N
1679743275.6,286046997.8,N
1679743295.4,286046997.9,N
1679743315.3,286046997.8,N
1679743335.1,286046995.0,Y
1679743355.9,286046999.1,P
1679743375.7,286046998.2,N
1679743395.5,286046999.0,N
1679743415.4,286046998.7,N
1679743435.2,286046998.7,N
1679743455.0,286046999.1,N
1679743455.9,286046999.1,N
1679743475.8,286046999.2,N
1679743495.6,286046996.6,Y
1679743515.5,286046998.6,P
1679743535.3,286047001.2,P
1679743555.1,286046998.8,N
1679743575.9,286046998.5,N
1679743595.7,286046999.4,N
1679743615.5,286046998.4,N
1679743635.4,286046999.1,N
1679743655.2,286046999.4,N
1679743675.1,286046999.6,N
1679743676.0,286046999.6,N
1679743695.8,286047001.1,N
1679743715.6,286046999.5,N
1679743735.5,286046998.8,N
1679743755.3,286046996.5,Y
1679743775.1,286046998.3,P
1679743795.9,286046998.6,N
1679743815.7,286046999.5,N
1679743835.6,286046996.9,Y
1679743855.4,286047000.6,P
1679743875.2,286047000.8,N
1679743895.1,286047000.9,N
1679743896.0,286047000.9,N
1679743915.8,286046998.2,N
1679743935.7,286047001.1,N
1679743955.5,286046998.9,N
1679743975.3,286046997.1,N
1679743995.2,286046996.8,N
1679744015.9,286046999.1,N
1679744035.7,286046997.8,N
1679744055.6,286046997.5,N
1679744075.4,286046997.9,N
1679744095.3,286046995.3,Y
1679744115.1,286046997.7,P
1679744116.0,286046997.7,P
1679744135.8,286046997.5,P
1679744155.7,286046995.7,Y
1679744175.5,286046998.3,P
1679744195.3,286046998.8,P
1679744215.2,286046998.3,P
1679744235.0,286046998.3,Y
1679744235.9,286046998.3,P
1679744255.8,286047000.6,P
1679744275.6,286046999.9,N
1679744295.4,286047001.2,N
1679744315.3,286046999.0,N
1679744335.1,286046998.5,N
1679744355.9,286047000.6,N
1679744375.7,286046998.5,N
1679744395.5,286047001.0,N
1679744415.4,286046999.3,N
1679744435.2,286046998.2,N
1679744455.0,286046997.7,N
1679744455.9,286046997.7,N
1679744475.8,286046996.8,N
1679744495.6,286046997.4,N
1679744515.5,286046997.2,N
1679744535.3,286046996.1,N
1679744555.1,286046996.8,N
1679744575.9,286046997.7,N
1679744595.7,286046997.1,N
1679744615.6,286046996.8,N
1679744635.4,286046997.0,N
1679744655.2,286046995.1,Y
1679744675.1,286046997.4,P
1679744676.0,286046997.4,P
1679744695.8,286046997.2,P
1679744715.7,286046996.8,Y
1679744735.5,286046998.6,P
1679744755.3,286046997.0,P
1679744775.2,286046999.2,N
1679744795.0,286046997.5,N
1679744795.9,286046997.5,Y
1679744815.8,286046999.3,P
1679744835.6,286046999.6,N
1679744855.4,286046996.8,P
1679744875.3,286046996.5,Y
1679744895.1,286046998.7,P
1679744915.9,286046999.2,P
1679744935.7,286046999.2,N
1679744955.5,286046997.9,Y
1679744975.4,286046997.0,P
1679744995.2,286046996.9,P
1679745015.0,286046997.1,P
1679745016.0,286046997.1,Y
1679745035.8,286047000.7,P
1679745055.6,286046999.5,N
1679745075.5,286046998.7,N
1679745095.3,286046996.7,N
1679745115.1,286046999.2,N
1679745135.9,286046999.0,N
1679745155.7,286047000.4,N
1679745175.6,286047000.8,N
1679745195.4,286047001.1,N
1679745215.2,286046999.2,N
1679745235.1,286046997.7,N
1679745236.0,286046997.7,N
1679745255.8,286046996.7,N
1679745275.7,286046997.6,N
1679745295.5,286046997.2,N
1679745315.3,286046996.8,N
1679745335.2,286046995.4,Y
1679745355.0,286046998.3,P
1679745355.9,286046998.3,P
1679745375.8,286046998.7,P
1679745395.6,286046997.4,Y
1679745415.4,286046998.8,P
1679745435.3,286046999.1,P
1679745455.1,286046999.6,N
1679745475.9,286046998.4,Y
1679745495.7,286047011.9,P
1679745515.5,286046997.1,N
1679745535.4,286046996.8,N
1679745555.2,286046997.8,N
1679745575.0,286046994.9,N
1679745575.9,286046994.9,N
1679745595.8,286046996.2,N
